Location: Haut Kerinec
(48.0623°N, 4.4081°W)
Time: 22:36:56
(UTC+00:00)

STARLINK-1254 - Pass Details

Date: 09 October 2020
Orbit: 548 x 551 km, 53.0° (Epoch: 26 October)

Event Time Altitude Azimuth Distance (km) Brightness Sun altitude
Rises 19:08:09 0° 218° (SW) 2,703 7.6 -15.5°
Reaches altitude 10° 19:10:28 10° 211° (SSW) 1,814 6.6 -15.9°
Maximum altitude 19:14:20 40° 142° (SE) 813 4.1 -16.6°
Enters shadow 19:15:16 35° 108° (ESE) 905 4.2 -16.7°
